Terug naar catalogus

COSMOS 567

ActiefMilitairLEO
NORAD 6678·PAYLOAD·🇷🇺 Russia

Gelanceerd Jun 8, 1973 vanaf Plesetsk Cosmodrome

Loading…

Volgende Passages (komende 24 uur)

TLE

VersSource: Space-Track

Epoch: Sep 14, 2026, 05:28 UTC

1 06678U 73037D   26257.22831295 -.00000001  00000-0  93923-4 0  9993
2 06678  74.0228 358.9937 0045402 205.3976 168.0719 12.54108299438494

Volg COSMOS 567 in realtime met AllMySat

Download on the App Store